Elsenborn, Belgium

8:51 AM CET on February 23, 2017 (GMT +0100)
Elsenborn

Weather History for EBLB - June, 2013

Change the Weather History Date:

Friday, June 21, 2013

  Actual Average Record
Temperature  
Mean Temperature 57 °F -  
Max Temperature 62 °F 59 °F 84 °F (1998)
Min Temperature 52 °F 48 °F 35 °F (2003)
Degree Days  
Heating Degree Days 8    
Growing Degree Days 7 (Base 50)    
Moisture  
Dew Point 54 °F    
Average Humidity 92    
Maximum Humidity 100    
Minimum Humidity 77    
Precipitation  
Precipitation 0.04 in - - ()
Sea Level Pressure  
Sea Level Pressure 29.95 in    
Wind  
Wind Speed 9 mph ()    
Max Wind Speed 16 mph    
Max Gust Speed 24 mph    
Visibility 6.4 miles    
Events Rain    
Averages and records for this station are not official NWS values.
T = Trace of Precipitation, MM = Missing Value Source: Averaged Metar Reports

Daily Weather History Graph

Daily Weather History Graph

Search for Another Location

Airport or City:

Trip Planner

Search our weather history database for the weather conditions in past years. The results will help you decide how hot, cold, wet, or windy it might be!

Date:

Astronomy

Jun. 21, 2013 Rise Set
Actual Time 5:23 AM CEST 9:50 PM CEST
Civil Twilight 4:37 AM CEST 10:36 PM CEST
Nautical Twilight 3:29 AM CEST 11:44 PM CEST
Astronomical Twilight 2:09 AM CEST 1:04 AM CEST
Moon 7:34 PM CEST (6/21) 3:36 AM CEST (6/21)
Length of Visible Light 17h 58m
Length of Day
16h 27m
Waxing Gibbous, 94% of the Moon is Illuminated
Jun 21
Waxing Gibbous
Jun 23
Full
Jun 30
Last Quarter
Jul 8
New
Jul 16
First Quarter

Hourly Weather History & Observations

Time (CEST) Temp. Dew Point Humidity Pressure Visibility Wind Dir Wind Speed Gust Speed Precip Events Conditions
12:04 AM 57.2 °F 55.4 °F 94% 29.89 in 5.0 mi NE 5.8 mph - N/A   Overcast
12:25 AM 57.2 °F 57.2 °F 100% 29.86 in 5.0 mi Variable 3.5 mph - N/A   Mostly Cloudy
1:25 AM 55.4 °F 55.4 °F 100% 29.89 in 6.2 mi Variable 3.5 mph - N/A   Mostly Cloudy
2:00 AM 56 °F 55 °F 95% 29.87 in 18 mi SSW 6.7 mph - -   Clear
2:20 AM 55.4 °F 53.6 °F 94% 29.89 in 6.2 mi SSW 9.2 mph - N/A   Mostly Cloudy
2:25 AM 55.4 °F 53.6 °F 94% 29.86 in 6.2 mi SSW 9.2 mph - N/A   Mostly Cloudy
2:32 AM 55.4 °F 55.4 °F 100% 29.86 in 6.2 mi South 9.2 mph - N/A   Mostly Cloudy
3:25 AM 55.4 °F 55.4 °F 100% 29.86 in - SSW 12.7 mph - N/A   Mostly Cloudy
3:35 AM 55.4 °F 55.4 °F 100% 29.86 in - SSW 11.5 mph - N/A   Mostly Cloudy
4:25 AM 55.4 °F 53.6 °F 94% 29.86 in 6.2 mi SSW 11.5 mph - N/A   Mostly Cloudy
5:00 AM 54 °F 53 °F 95% 29.85 in 16 mi SSW 11.2 mph - -   Clear
5:15 AM 53.6 °F 51.8 °F 94% 29.86 in 6.2 mi SSW 11.5 mph - N/A   Mostly Cloudy
5:21 AM 53.6 °F 53.6 °F 100% 29.86 in 6.2 mi SSW 10.4 mph - N/A   Mostly Cloudy
5:25 AM 53.6 °F 51.8 °F 94% 29.86 in 6.2 mi SSW 11.5 mph - N/A   Mostly Cloudy
5:45 AM 53.6 °F 51.8 °F 94% 29.86 in 6.2 mi SSW 10.4 mph - N/A   Mostly Cloudy
6:25 AM 51.8 °F 51.8 °F 100% 29.89 in 6.2 mi SSW 9.2 mph - N/A   Mostly Cloudy
7:25 AM 53.6 °F 51.8 °F 94% 29.86 in 6.2 mi SSW 12.7 mph - N/A   Mostly Cloudy
8:00 AM 54 °F 53 °F 93% 29.86 in 25 mi SSW 11.2 mph - -   Mostly Cloudy
8:25 AM 55.4 °F 51.8 °F 88% 29.89 in 6.2 mi SSW 9.2 mph - N/A   Mostly Cloudy
9:25 AM 55.4 °F 53.6 °F 94% 29.89 in 6.2 mi SSW 10.4 mph - N/A Rain Light Rain Showers
9:35 AM 55.4 °F 53.6 °F 94% 29.89 in 6.2 mi SSW 10.4 mph - N/A Rain Light Rain Showers
10:25 AM 55.4 °F 53.6 °F 94% 29.89 in - SW 10.4 mph - N/A Rain Light Rain
11:00 AM 57 °F 55 °F 91% 29.88 in 22 mi SSW 11.2 mph - - Rain Light Rain
11:00 AM 59.0 °F 55.4 °F 88% 29.92 in 6.2 mi SW 11.5 mph - N/A   Mostly Cloudy
11:25 AM 59.0 °F 55.4 °F 88% 29.92 in 6.2 mi SW 11.5 mph - N/A   Mostly Cloudy
11:35 AM 59.0 °F 55.4 °F 88% 29.92 in 6.2 mi SSW 9.2 mph - N/A   Mostly Cloudy
12:15 PM 59.0 °F 55.4 °F 88% 29.92 in 6.2 mi SSW 11.5 mph - N/A   Mostly Cloudy
12:25 PM 60.8 °F 55.4 °F 82% 29.92 in 6.2 mi SSW 11.5 mph - N/A   Mostly Cloudy
1:25 PM 60.8 °F 53.6 °F 77% 29.92 in 6.2 mi SW 12.7 mph - N/A Rain Light Rain Showers
1:40 PM 60.8 °F 55.4 °F 82% 29.95 in 6.2 mi WSW 16.1 mph - N/A   Mostly Cloudy
2:00 PM 60 °F 57 °F 87% 29.90 in 7 mi SW 13.4 mph - - Rain Light Rain Showers
2:20 PM 59.0 °F 53.6 °F 82% 29.95 in 6.2 mi SW 12.7 mph 24.2 mph N/A Rain Light Rain Showers
2:25 PM 59.0 °F 55.4 °F 88% 29.95 in 6.2 mi SW 15.0 mph - N/A Rain Light Rain Showers
3:05 PM 59.0 °F 55.4 °F 88% 29.95 in 6.2 mi WSW 10.4 mph - N/A   Mostly Cloudy
3:25 PM 60.8 °F 55.4 °F 82% 29.95 in 6.2 mi SW 11.5 mph - N/A Rain Light Rain Showers
4:25 PM 59.0 °F 55.4 °F 88% 29.98 in 6.2 mi SSW 9.2 mph - N/A   Mostly Cloudy
4:50 PM 57.2 °F 53.6 °F 88% 29.98 in 6.2 mi SSW 9.2 mph - N/A   Mostly Cloudy
5:00 PM 58 °F 53 °F 80% 29.96 in 22 mi SSW 8.9 mph - -   Partly Cloudy
5:25 PM 60.8 °F 53.6 °F 77% 29.98 in 6.2 mi SSW 10.4 mph - N/A   Mostly Cloudy
5:28 PM 59.0 °F 53.6 °F 82% 29.98 in 6.2 mi SSW 10.4 mph - N/A   Mostly Cloudy
6:15 PM 57.2 °F 51.8 °F 82% 29.98 in 6.2 mi SSW 10.4 mph - N/A   Mostly Cloudy
6:25 PM 57.2 °F 53.6 °F 88% 29.98 in 6.2 mi SW 9.2 mph - N/A   Mostly Cloudy
6:28 PM 57.2 °F 51.8 °F 82% 29.98 in 6.2 mi SW 9.2 mph - N/A   Mostly Cloudy
6:55 PM 55.4 °F 53.6 °F 94% 30.01 in 6.2 mi WSW 10.4 mph - N/A   Mostly Cloudy
7:25 PM 57.2 °F 53.6 °F 88% 30.01 in 6.2 mi WSW 6.9 mph - N/A   Mostly Cloudy
7:28 PM 57.2 °F 53.6 °F 88% 30.01 in 6.2 mi SW 6.9 mph - N/A   Mostly Cloudy
7:34 PM 57.2 °F 53.6 °F 88% 30.01 in 6.2 mi SW 8.1 mph - N/A   Mostly Cloudy
7:40 PM 57.2 °F 53.6 °F 88% 30.01 in 6.2 mi SW 9.2 mph - N/A   Mostly Cloudy
7:50 PM 57.2 °F 53.6 °F 88% 30.01 in 6.2 mi WSW 10.4 mph - N/A   Mostly Cloudy
8:00 PM 57 °F 53 °F 81% 29.99 in 15 mi WSW 8.9 mph - - Rain Drizzle
8:03 PM 55.4 °F 51.8 °F 88% 30.01 in - WSW 11.5 mph - N/A   Mostly Cloudy
8:21 PM 55.4 °F 53.6 °F 94% 30.01 in 3.1 mi WSW 9.2 mph - N/A   Mostly Cloudy
8:25 PM 55.4 °F 53.6 °F 94% 30.01 in 5.0 mi WSW 8.1 mph - N/A   Mostly Cloudy
8:33 PM 55.4 °F 53.6 °F 94% 30.01 in 6.2 mi WSW 8.1 mph - N/A   Mostly Cloudy
8:40 PM 55.4 °F 53.6 °F 94% 30.01 in 5.6 mi WSW 6.9 mph - N/A   Mostly Cloudy
8:46 PM 55.4 °F 53.6 °F 94% 30.01 in 6.2 mi WSW 6.9 mph - N/A   Mostly Cloudy
9:08 PM 55.4 °F 53.6 °F 94% 30.01 in 2.2 mi SW 5.8 mph - N/A   Mostly Cloudy
9:25 PM 55.4 °F 53.6 °F 94% 30.04 in - SW 10.4 mph - N/A   Mostly Cloudy
9:28 PM 55.4 °F 53.6 °F 94% 30.04 in - SW 9.2 mph - N/A   Mostly Cloudy
9:45 PM 53.6 °F 53.6 °F 100% 30.04 in - SW 8.1 mph - N/A   Mostly Cloudy
10:10 PM 53.6 °F 53.6 °F 100% 30.04 in 5.0 mi SW 9.2 mph - N/A   Mostly Cloudy
10:25 PM 53.6 °F 53.6 °F 100% 30.04 in 5.6 mi SW 8.1 mph - N/A   Mostly Cloudy
10:35 PM 53.6 °F 53.6 °F 100% 30.04 in 5.0 mi SW 8.1 mph - N/A   Mostly Cloudy
10:45 PM 53.6 °F 53.6 °F 100% 30.04 in 5.0 mi SW 9.2 mph - N/A   Mostly Cloudy
11:00 PM 54 °F 54 °F 100% 30.03 in 5 mi SW 8.9 mph - - Rain Drizzle
11:25 PM 53.6 °F 53.6 °F 100% 30.04 in 6.2 mi SW 8.1 mph - N/A   Mostly Cloudy
11:45 PM 53.6 °F 53.6 °F 100% 30.04 in 5.6 mi SW 6.9 mph - N/A   Mostly Cloudy
11:55 PM 53.6 °F 53.6 °F 100% 30.04 in 5.6 mi SW 5.8 mph - N/A   Mostly Cloudy